GW4091 Weather Reports


time (UTC)temp
F
wind
direction
speed
knots
gust
knots
rain 1hr
in
rain 24hr
in
rain mn
in
humidity
%
barometer
mb
20260509111528 63 161 0.0 0.0 0.00 0.00 0.00 90 1013.5
20260509110033 62 161 0.0 0.0 0.00 0.00 0.00 90 1013.3
20260509104537 63 161 0.0 0.0 0.00 0.00 0.00 90 1013.1
20260509103018 63 161 0.0 0.0 0.00 0.00 0.00 89 1012.9
20260509101527 63 161 0.0 0.0 0.00 0.00 0.00 89 1012.7
20260509100028 63 161 0.0 0.0 0.00 0.00 0.00 89 1012.8
20260509094529 63 161 0.0 0.0 0.00 0.00 0.00 89 1013.0
20260509093015 63 161 0.0 0.0 0.00 0.00 0.00 89 1013.1
20260509091524 64 161 0.0 0.0 0.00 0.00 0.00 88 1013.1
20260509090028 64 161 0.0 0.0 0.00 0.00 0.00 88 1013.2
20260509084542 64 161 0.0 0.0 0.00 0.00 0.00 88 1013.3
20260509083031 64 57 0.0 0.0 0.00 0.00 0.00 88 1012.9
20260509081536 64 59 0.0 0.0 0.00 0.00 0.00 87 1013.4
20260509080046 64 78 0.0 0.0 0.00 0.00 0.00 87 1013.5
20260509074506 64 318 0.0 0.0 0.00 0.00 0.00 87 1013.6
20260509073032 64 20 0.0 0.0 0.00 0.00 0.00 86 1013.5
20260509071520 64 13 0.0 0.0 0.00 0.00 0.00 86 1013.3
20260509070025 64 19 0.9 1.7 0.00 0.00 0.00 85 1013.3
20260509064509 64 327 0.0 1.7 0.00 0.00 0.00 85 1013.8
20260509063012 64 59 0.9 2.6 0.00 0.00 0.00 85 1013.6
20260509061528 64 300 0.0 4.3 0.00 0.00 0.00 84 1014.8
20260509060030 65 153 0.0 1.7 0.00 0.00 0.00 84 1014.4
20260509054528 64 56 0.0 1.7 0.00 0.00 0.00 84 1014.5
20260509053035 64 313 0.9 2.6 0.00 0.00 0.00 83 1014.5
20260509051516 64 52 0.0 1.7 0.00 0.00 0.00 83 1014.6
20260509050030 64 35 0.9 2.6 0.00 0.00 0.00 83 1015.0
20260509044533 64 9 0.0 1.7 0.00 0.00 0.00 83 1015.7
20260509043030 65 34 0.0 1.7 0.00 0.00 0.00 82 1015.7
20260509041512 65 46 0.0 1.7 0.00 0.00 0.00 82 1015.2
20260509040035 65 71 0.0 1.7 0.00 0.00 0.00 82 1015.9
20260509034525 65 36 0.0 0.0 0.00 0.00 0.00 81 1016.1
20260509033023 65 36 0.0 0.0 0.00 0.00 0.00 80 1015.9
20260509031531 65 36 0.0 1.7 0.00 0.00 0.00 79 1016.0
20260509030012 66 36 0.0 1.7 0.00 0.00 0.00 79 1016.2
20260509024518 65 36 0.0 0.0 0.00 0.00 0.00 79 1016.3
20260509023024 66 22 0.0 1.7 0.00 0.00 0.00 79 1015.9
20260509021526 66 41 0.0 1.7 0.00 0.00 0.00 77 1016.0
20260509020033 66 94 0.0 0.9 0.00 0.00 0.00 77 1015.8
20260509014533 66 74 0.0 1.7 0.00 0.00 0.00 76 1015.9
20260509013023 66 9 0.0 1.7 0.00 0.00 0.00 76 1015.8
20260509011524 66 69 0.0 1.7 0.00 0.00 0.00 75 1015.7
20260509010032 66 148 0.9 2.6 0.00 0.00 0.00 74 1015.6
20260509004517 66 153 0.0 2.6 0.00 0.00 0.00 73 1015.6
20260509003035 66 123 0.0 4.3 0.00 0.00 0.00 72 1015.4
20260509001525 67 69 0.9 2.6 0.00 0.00 0.00 71 1015.3
20260509000028 67 86 0.0 1.7 0.00 0.00 0.00 70 1015.2
20260508234512 67 360 0.9 3.5 0.00 0.00 0.00 69 1015.0
20260508233016 68 96 0.0 4.3 0.00 0.00 0.00 68 1014.9
20260508231519 68 86 0.0 3.5 0.00 0.00 0.00 66 1015.0
20260508230026 68 171 0.0 1.7 0.00 0.00 0.00 65 1015.2
20260508224528 68 149 0.9 3.5 0.00 0.00 0.00 64 1015.0
20260508223028 68 139 0.0 6.1 0.00 0.00 0.00 64 1015.1
20260508221528 68 161 1.7 4.3 0.00 0.00 0.00 63 1014.9
20260508220024 68 135 0.9 3.5 0.00 0.00 0.00 65 1015.2
20260508214529 69 78 0.9 3.5 0.00 0.00 0.00 65 1014.9
20260508213013 69 79 1.7 7.0 0.00 0.00 0.00 63 1015.0
20260508211536 69 165 0.9 5.2 0.00 0.00 0.00 63 1015.1
20260508210030 70 136 2.6 7.0 0.00 0.00 0.00 63 1015.0
20260508204527 70 140 1.7 6.1 0.00 0.00 0.00 64 1014.9
20260508203028 70 56 1.7 7.8 0.00 0.00 0.00 62 1015.0
20260508201532 71 52 3.5 10.4 0.00 0.00 0.00 59 1014.8
20260508200027 72 117 2.6 6.1 0.00 0.00 0.00 59 1015.2
20260508194530 71 138 2.6 9.6 0.00 0.00 0.00 59 1015.4
20260508193029 73 150 2.6 7.8 0.00 0.00 0.00 57 1015.5
20260508191509 75 152 2.6 7.0 0.00 0.00 0.00 53 1015.2
20260508190004 77 161 1.7 5.2 0.00 0.00 0.00 45 1015.4
20260508184507 74 111 0.9 3.5 0.00 0.00 0.00 46 1015.6
20260508183003 74 155 0.9 5.2 0.00 0.00 0.00 46 1015.7
20260508181505 75 71 2.6 6.1 0.00 0.00 0.00 47 1015.9
20260508180004 74 169 0.9 3.5 0.00 0.00 0.00 46 1016.0
20260508174506 74 43 0.9 7.8 0.00 0.00 0.00 45 1016.2
20260508173007 72 142 1.7 8.7 0.00 0.00 0.00 45 1016.3
20260508171518 73 32 1.7 3.5 0.00 0.00 0.00 46 1016.3
20260508170005 73 52 0.9 8.7 0.00 0.00 0.00 44 1016.6
20260508164504 74 23 3.5 7.0 0.00 0.00 0.00 41 1016.6
20260508163006 72 57 3.5 7.0 0.00 0.00 0.00 46 1016.8
20260508161506 71 36 5.2 9.6 0.00 0.00 0.00 47 1017.3
20260508160013 71 91 4.3 7.8 0.00 0.00 0.00 50 1017.7
20260508154510 71 9 5.2 10.4 0.00 0.00 0.00 51 1017.9
20260508153008 70 49 7.8 9.6 0.00 0.00 0.00 52 1017.9
20260508151511 70 49 3.5 7.8 0.00 0.00 0.00 54 1017.9
20260508150009 69 26 2.6 11.3 0.00 0.00 0.00 55 1017.9
20260508144510 68 49 6.1 13.0 0.00 0.00 0.00 56 1017.9
20260508143009 67 27 2.6 8.7 0.00 0.00 0.00 61 1017.8
20260508141519 66 30 0.9 10.4 0.00 0.00 0.00 62 1017.4
20260508140019 65 9 1.7 11.3 0.00 0.00 0.00 66 1017.6
20260508134512 64 45 7.0 13.9 0.00 0.01 0.00 68 1017.5
20260508133014 62 61 5.2 12.2 0.00 0.01 0.00 73 1017.2
20260508131525 61 32 5.2 12.2 0.00 0.01 0.00 78 1017.1
20260508130013 61 48 4.3 9.6 0.00 0.01 0.00 82 1016.9
20260508124526 60 59 3.5 7.0 0.00 0.01 0.00 84 1016.9
20260508123024 60 13 1.7 7.8 0.00 0.01 0.00 86 1016.7
20260508121516 59 46 0.9 7.0 0.00 0.01 0.00 87 1016.5
20260508120015 59 25 1.7 7.8 0.00 0.01 0.00 87 1016.4
20260508114518 59 28 2.6 7.8 0.00 0.01 0.00 88 1016.0
20260508113016 59 28 2.6 7.0 0.00 0.01 0.00 88 1015.8